Home > Weather > Edmonton > Past weeks

Flag for Canada Weather for the Past 2 Weeks in Edmonton, Alberta, Canada

Now
28 °F

Chilly.


Feels Like: 28 °F
Forecast: 24 / 38 °F
Wind: 2 mph from South

Location: Edmonton Municipal

Current Time: Feb 8, 2016 at 2:01:23 AM

Latest Report: Feb 8, 2016 at 1:00 AM


Visibility: N/A

Pressure: 30.40 "Hg (27.86 "Hg at 692m altitude)

Humidity: 72%

Dew point: 20 °F

Location of EdmontonLocation

Historic Weather in Edmonton — Graph

°F

Edmonton Temperature Yesterday

Maximum temperature yesterday: 37 °F (at 3:00 PM)
Minimum temperature yesterday: 28 °F (at 11:00 PM)
Average temperature yesterday: 31 °F

High & Low Weather Summary for the Past Weeks

 TemperatureHumidityPressure
High48 °F (Jan 28, 6:00 PM)98% (Jan 25, 7:00 AM)30.46 "Hg (Jan 25, 7:00 AM)
Low8 °F (Jan 25, 7:00 AM)32% (Feb 6, 1:00 PM)29.30 "Hg (Jan 28, 3:00 PM)
Average28 °F73%29.91 "Hg
* Reported Jan 24 1:00 AM — Feb 8 1:00 AM, Edmonton, Weather by CustomWeather, © 2016

Note: Actual official high and low records may vary slightly from our data, if they occured in-between our weather recording intervals... More about our weather records

Advertising

Edmonton Weather History for the Previous 24 Hours

 ConditionsComfort  
Time TempWeatherWind HumidityBarometerVisibility
1:00 AM
Mon, Feb 8
28 °FChilly.2 mph72%30.40 "HgN/A
12:00 AM31 °FChilly.No wind57%30.41 "HgN/A
11:00 PM
Sun, Feb 7
28 °FChilly.No wind67%30.45 "HgN/A
10:00 PM28 °FChilly.3 mph69%30.42 "HgN/A
9:00 PM31 °FChilly.3 mph57%30.44 "HgN/A
8:00 PM29 °FChilly.2 mph62%30.46 "HgN/A
7:00 PM32 °FChilly.5 mph58%30.46 "HgN/A
6:00 PM32 °FChilly.6 mph59%30.45 "HgN/A
5:00 PM35 °FChilly.6 mph53%30.46 "HgN/A
4:00 PM36 °FChilly.7 mph49%30.44 "HgN/A
3:00 PM37 °FChilly.6 mph47%30.43 "HgN/A
2:00 PM35 °FChilly.9 mph51%30.43 "HgN/A
1:00 PM36 °FChilly.12 mph49%30.44 "HgN/A
12:00 PM35 °FChilly.9 mph50%30.43 "HgN/A
11:00 AM31 °FChilly.8 mph55%30.43 "HgN/A
10:00 AM31 °FChilly.8 mph58%30.42 "HgN/A
9:00 AM29 °FChilly.8 mph62%30.43 "HgN/A
8:00 AM29 °FChilly.7 mph59%30.40 "HgN/A
7:00 AM28 °FChilly.9 mph64%30.38 "HgN/A
6:00 AM29 °FChilly.9 mph60%30.36 "HgN/A
5:00 AM29 °FChilly.9 mph65%30.34 "HgN/A
4:00 AM30 °FChilly.10 mph58%30.31 "HgN/A
3:00 AM30 °FChilly.12 mph59%30.28 "HgN/A
2:00 AM31 °FChilly.12 mph57%30.23 "HgN/A
Weather by CustomWeather, © 2016

See weather overviewHow to use our weather pages